Home > Weather > Fulda > Past weeks

Flag for Germany Past Weather in Fulda, Hesse, Germany — Yesterday and Last 2 Weeks

Now
67 °F

Light rain. Overcast.


Feels Like: 67 °F
Forecast: 54 / 68 °F
Wind: 2 mph from Northwest

Location: Fritzlar

Current Time: Jun 25, 2016 at 12:42:04 PM

Latest Report: Jun 25, 2016 at 12:00 PM


Visibility: 6 mi

Pressure: 29.90 "Hg

Humidity: 91%

Dew Point: 65 °F

Location of FuldaLocation

Past Weather in Fulda — Graph

°F

Fulda Temperature Yesterday

Maximum temperature yesterday: 87 °F (at 3:00 PM)
Minimum temperature yesterday: 63 °F (at 6:00 AM)
Average temperature yesterday: 74 °F

High & Low Weather Summary for the Past Weeks

 TemperatureHumidityPressure
High89 °F (Jun 23, 6:00 PM)97% (Jun 13, 3:00 AM)30.28 "Hg (Jun 13, 3:00 AM)
Low44 °F (Jun 20, 4:00 AM)31% (Jun 10, 6:00 PM)29.47 "Hg (Jun 14, 3:00 PM)
Average62 °F77%29.89 "Hg
* Reported Jun 10 10:00 AM — Jun 25 10:00 AM, Fulda, Weather by CustomWeather, © 2016

Note: Actual official high and low records may vary slightly from our data, if they occured in-between our weather recording intervals... More about our weather records

Advertising

Fulda Weather History for the Previous 24 Hours

Scroll right to see more
 ConditionsComfort  
Time TempWeatherWind HumidityBarometerVisibility
10:00 AM
Sat, Jun 25
67 °FLow clouds.3 mph90%29.93 "Hg9 mi
9:00 AM68 °FSprinkles. Overcast.2 mph91%29.92 "Hg5 mi
7:00 AM66 °FThundershowers. Low clouds.6 mph95%29.90 "Hg4 mi
6:00 AM66 °FThundershowers. Low clouds.2 mph94%29.97 "Hg3 mi
4:00 AM68 °FOvercast.3 mph86%29.96 "Hg6 mi
3:00 AM68 °FOvercast.3 mph87%29.98 "Hg7 mi
1:00 AM69 °FOvercast.3 mph90%30.01 "Hg9 mi
12:00 AM69 °FPassing clouds.2 mph91%30.01 "Hg12 mi
10:00 PM
Fri, Jun 24
73 °FPassing clouds.2 mph83%30.00 "Hg16 mi
9:00 PM75 °FPartly sunny.3 mph74%30.01 "Hg19 mi
7:00 PM78 °FScattered clouds.5 mph60%30.00 "Hg19 mi
6:00 PM78 °FScattered clouds.2 mph61%30.01 "Hg19 mi
4:00 PM70 °FThunderstorms. Overcast.6 mph77%30.01 "Hg16 mi
3:00 PM87 °FPartly sunny.2 mph54%29.95 "Hg16 mi
1:00 PM85 °FScattered clouds.N/A54%29.99 "Hg25 mi
12:00 PM82 °FScattered clouds.N/A60%30.01 "Hg25 mi
Weather by CustomWeather, © 2016

See weather overviewHow to use our weather pages